Hourly Data Report for October 03, 2013

All times are specified in Local Standard Time (LST). Add 1 hour to adjust for Daylight Saving Time where and when it is observed.

PENTICTON A
BRITISH COLUMBIA

49°27'45.000" N
119°36'08.000" W
344.40 m
1126146
71889
YYF

Download Data

Hourly Data (October 2013)
Hourly Data Report for October 3, 2013
Temp Definition
°C
Dew Point Temp Definition
°C
Rel Hum Definition
%
Wind Dir Definition
10's deg

Wind Spd Definition
km/h
Visibility Definition
km
Stn Press Definition
kPa
Hmdx Definition


Wind Chill Definition


Weather Definition


TIME
00:00 Legend Double Dagger 5.5 4.5 93 36 12 24.1 98.12     LegendNANA
01:00 Legend Double Dagger 5.8 4.1 89 1 9 24.1 98.16     Mostly Cloudy
02:00 Legend Double Dagger 6.4 4.9 90 32 8 24.1 98.22     LegendNANA
03:00 Legend Double Dagger 6.8 4.0 82 34 10 24.1 98.28     LegendNANA
04:00 Legend Double Dagger 6.5 3.8 83 36 10 24.1 98.34     Mostly Cloudy
05:00 Legend Double Dagger 6.0 4.5 90 1 12 24.1 98.38     LegendNANA
06:00 Legend Double Dagger 4.7 3.4 91 3 8 24.1 98.44     LegendNANA
07:00 Legend Double Dagger 6.1 3.9 86 36 13 24.1 98.50     Mainly Clear
08:00 Legend Double Dagger 5.7 4.0 89 35 4 24.1 98.59     LegendNANA
09:00 Legend Double Dagger 10.7 6.7 76 5 12 24.1 98.63     LegendNANA
10:00 Legend Double Dagger 11.5 5.8 68 1 16 24.1 98.66     Mainly Clear
11:00 Legend Double Dagger 12.7 5.4 61 1 21 24.1 98.66     LegendNANA
12:00 Legend Double Dagger 12.9 5.4 60 36 15 24.1 98.66     LegendNANA
13:00 Legend Double Dagger 13.6 5.1 56 36 14 24.1 98.63     Mainly Clear
14:00 Legend Double Dagger 14.1 4.5 52 2 12 24.1 98.64     LegendNANA
15:00 Legend Double Dagger 14.4 4.7 52 36 12 24.1 98.61     LegendNANA
16:00 Legend Double Dagger 13.8 4.5 53 36 14 24.1 98.63     Mainly Clear
17:00 Legend Double Dagger 11.4 4.4 62 34 11 24.1 98.66     LegendNANA
18:00 Legend Double Dagger 7.8 4.0 77 36 4 24.1 98.71     LegendNANA
19:00 Legend Double Dagger 7.4 3.1 74 35 8 24.1 98.79     Mainly Clear
20:00 Legend Double Dagger 9.3 2.2 61 36 14 24.1 98.84     LegendNANA
21:00 Legend Double Dagger 6.1 1.6 73 36 10 24.1 98.88     LegendNANA
22:00 Legend Double Dagger 4.5 1.0 78 36 10 24.1 98.92     Clear
23:00 Legend Double Dagger 2.1 0.3 88 34 1 24.1 98.96     LegendNANA

Notes on Data Quality.

Legend

  • E = Estimated
  • M = Missing
  • NA = Not Available
  • ‡ = Partner data that is not subject to review by the National Climate Archives
Date modified: